User: anonymous   Login
Location: Ambrosina
(19.9365°S, 43.9833°W)
Time: 00:40:58
(UTC+00:00)
Language:

Cosmos 1763 Rocket - Orbit

View from above orbital plane
View from above orbital plane
View from above satellite
View from above satellite

Ground track
Ground track

The orbit data is extracted from the following two-line orbital elements,

1 16864U 86052B   21213.33467785  .00000035  00000-0  19405-4 0  9999
2 16864  74.0283 187.1301 0034371 274.1345  85.5882 14.40636983839545
Epoch (UTC): 01 August 2021 08:01:56
Eccentricity: 0.0034371
inclination: 74.0283°
perigee height: 732 km
apogee height: 781 km
right ascension of ascending node: 187.1301°
argument of perigee: 274.1345°
revolutions per day: 14.40636983
mean anomaly at epoch: 85.5882°
orbit number at epoch: 83954

The dashed part of the orbit path shows where the satellite is in the earth's shadow,  

DLR